Total_Precipitation_Accumulation
0.55 0.86 1.13 1.17 1.19 1.11 0.94 0.92 0.97 0.94 0.85 0.94 0.93 0.93 0.96 0.98 1.03 0.96 0.80 0.78 0.79 0.76 0.78 0.80 0.84 0.91 0.94 0.93 0.92 0.92 0.98 1.08 1.19 1.41 1.72 2.23 2.50 2.58 2.44 2.37 2.27 2.05 1.81 1.79
0.67 0.68 0.56 0.62 0.68 0.79 0.80 0.88 0.88 0.84 0.74 0.79 0.75 0.75 0.74 0.74 0.72 0.69 0.61 0.62 0.71 0.71 0.79 0.78 0.76 0.78 0.80 0.78 0.81 0.96 1.02 1.08 1.20 1.45 1.76 2.13 2.56 2.62 2.55 2.43 2.33 2.22 2.08 2.03
0.56 0.49 0.44 0.57 0.65 0.72 0.75 0.81 0.81 0.89 0.85 0.75 0.70 0.77 0.75 0.67 0.58 0.51 0.49 0.51 0.58 0.58 0.66 0.70 0.75 0.77 0.74 0.70 0.66 0.78 0.95 1.14 1.43 1.72 2.02 2.20 2.50 2.60 2.60 2.46 2.39 2.40 2.33 2.20
0.60 0.45 0.45 0.58 0.58 0.59 0.79 0.56 0.52 0.62 0.93 1.00 0.76 0.93 0.75 0.61 0.63 0.56 0.51 0.48 0.50 0.53 0.56 0.61 0.70 0.75 0.69 0.63 0.60 0.68 0.83 1.12 1.52 1.87 2.10 2.36 2.72 2.82 2.67 2.58 2.50 2.48 2.47 2.46
0.58 0.43 0.44 0.52 0.45 0.42 0.57 0.47 0.48 0.55 0.77 0.86 0.67 0.70 0.68 0.60 0.65 0.63 0.55 0.52 0.48 0.46 0.45 0.51 0.55 0.59 0.61 0.67 0.69 0.75 0.94 1.21 1.53 1.78 2.06 2.40 2.60 2.70 2.76 2.65 2.59 2.56 2.58 2.59
0.50 0.36 0.37 0.40 0.37 0.36 0.41 0.53 0.62 0.64 0.77 0.84 0.48 0.56 0.69 0.59 0.47 0.49 0.52 0.51 0.46 0.43 0.41 0.49 0.56 0.61 0.67 0.72 0.81 0.93 1.10 1.29 1.54 1.78 2.06 2.22 2.40 2.54 2.59 2.63 2.56 2.51 2.55 2.65
0.49 0.39 0.31 0.29 0.40 0.40 0.45 0.78 1.09 1.09 1.07 0.83 0.40 0.53 0.66 0.47 0.37 0.39 0.44 0.46 0.43 0.45 0.51 0.61 0.71 0.84 0.94 0.96 1.01 1.12 1.25 1.45 1.59 1.71 1.87 1.97 2.08 2.19 2.17 2.29 2.34 2.46 2.45 2.47
0.46 0.43 0.28 0.25 0.32 0.41 0.39 0.61 1.02 1.10 0.94 0.72 0.54 0.73 0.72 0.46 0.38 0.39 0.41 0.45 0.48 0.57 0.67 0.83 0.99 1.16 1.23 1.22 1.27 1.35 1.42 1.49 1.53 1.58 1.67 1.80 1.88 1.93 1.91 1.87 1.87 2.02 2.17 2.19
0.42 0.40 0.22 0.23 0.26 0.33 0.41 0.48 0.54 0.71 0.62 0.65 0.64 0.74 0.70 0.50 0.46 0.46 0.48 0.53 0.63 0.83 0.94 1.09 1.26 1.37 1.33 1.32 1.34 1.40 1.46 1.48 1.48 1.52 1.57 1.55 1.60 1.65 1.65 1.61 1.68 1.71 1.76 1.76
0.40 0.46 0.27 0.23 0.32 0.31 0.37 0.51 0.68 0.97 1.08 0.94 0.76 0.88 0.87 0.68 0.55 0.51 0.59 0.71 0.88 1.14 1.30 1.47 1.65 1.63 1.54 1.55 1.62 1.54 1.46 1.47 1.52 1.55 1.56 1.49 1.52 1.55 1.52 1.41 1.45 1.42 1.38 1.39
0.35 0.52 0.43 0.32 0.33 0.35 0.40 0.56 0.73 1.03 1.11 1.28 1.32 1.35 1.03 0.82 0.75 0.82 0.95 1.07 1.27 1.52 1.67 1.80 1.91 1.89 1.72 1.61 1.59 1.53 1.42 1.38 1.38 1.44 1.54 1.51 1.48 1.49 1.49 1.39 1.31 1.28 1.26 1.27
0.32 0.52 0.54 0.35 0.28 0.32 0.50 0.71 0.94 1.43 1.37 1.21 1.40 1.53 1.11 0.91 0.91 0.93 1.01 1.18 1.40 1.52 1.60 1.66 1.68 1.75 1.66 1.57 1.48 1.45 1.37 1.23 1.24 1.28 1.38 1.50 1.43 1.41 1.42 1.34 1.37 1.27 1.18 1.17
0.43 0.61 0.78 0.68 0.59 0.56 0.66 0.73 0.87 1.05 1.26 1.31 1.51 1.63 1.16 0.95 0.93 0.97 1.08 1.17 1.22 1.21 1.32 1.45 1.54 1.47 1.48 1.48 1.43 1.52 1.55 1.42 1.42 1.42 1.52 1.55 1.47 1.45 1.44 1.30 1.36 1.28 1.21 1.19
0.49 0.58 0.71 0.85 0.79 0.76 0.80 0.71 0.69 0.89 1.17 1.19 1.23 1.29 1.05 1.00 1.00 0.95 1.00 1.04 1.10 1.12 1.17 1.23 1.32 1.29 1.39 1.48 1.47 1.57 1.61 1.58 1.58 1.65 1.69 1.59 1.53 1.49 1.46 1.33 1.26 1.24 1.22 1.21
0.45 0.45 0.39 0.39 0.37 0.45 0.67 0.78 0.70 0.75 0.85 1.11 0.99 0.85 0.83 0.83 0.91 0.93 0.92 0.94 0.94 0.98 0.99 0.96 0.98 1.02 1.14 1.21 1.22 1.30 1.37 1.42 1.52 1.59 1.59 1.58 1.46 1.34 1.32 1.36 1.18 1.17 1.23 1.23
0.37 0.37 0.28 0.24 0.21 0.30 0.55 0.67 0.68 0.67 0.67 0.70 0.63 0.62 0.53 0.53 0.61 0.68 0.74 0.70 0.73 0.78 0.78 0.77 0.76 0.78 0.85 0.80 0.83 0.90 1.05 1.24 1.42 1.46 1.42 1.37 1.29 1.29 1.26 1.23 1.15 1.10 1.12 1.16
0.37 0.41 0.44 0.34 0.25 0.35 0.58 0.59 0.63 0.49 0.36 0.35 0.44 0.45 0.38 0.40 0.50 0.58 0.67 0.70 0.68 0.68 0.70 0.71 0.71 0.69 0.72 0.70 0.73 0.80 0.89 1.06 1.20 1.25 1.20 1.10 1.06 1.06 1.08 1.07 1.10 1.10 1.10 1.12
0.33 0.45 0.59 0.50 0.47 0.70 0.78 0.61 0.52 0.45 0.31 0.24 0.26 0.29 0.30 0.34 0.44 0.51 0.58 0.67 0.64 0.62 0.62 0.66 0.67 0.65 0.68 0.74 0.78 0.85 0.92 0.94 1.03 1.12 1.11 1.05 0.98 0.93 0.93 0.94 1.00 1.07 1.04 1.02
0.34 0.47 0.66 0.65 0.64 0.66 0.62 0.44 0.41 0.51 0.51 0.28 0.23 0.23 0.23 0.26 0.38 0.44 0.50 0.53 0.49 0.47 0.45 0.45 0.47 0.49 0.56 0.62 0.67 0.67 0.70 0.72 0.78 0.85 0.90 0.87 0.79 0.82 0.89 0.88 1.00 1.03 0.95 0.95
0.46 0.47 0.68 0.70 0.73 0.78 0.57 0.29 0.25 0.40 0.68 0.35 0.22 0.18 0.17 0.24 0.39 0.39 0.35 0.35 0.32 0.32 0.31 0.29 0.32 0.34 0.40 0.47 0.60 0.63 0.59 0.53 0.55 0.62 0.64 0.70 0.69 0.71 0.79 0.88 0.97 1.01 0.95 0.96
0.45 0.52 0.64 0.77 0.91 0.94 0.64 0.35 0.30 0.61 0.72 0.36 0.21 0.16 0.19 0.24 0.27 0.27 0.26 0.27 0.24 0.26 0.27 0.26 0.27 0.31 0.36 0.43 0.51 0.54 0.57 0.52 0.52 0.55 0.56 0.58 0.61 0.66 0.78 0.86 0.81 0.81 0.84 0.89
0.60 0.76 0.85 0.97 1.20 1.28 0.79 0.58 0.60 0.59 0.39 0.27 0.19 0.18 0.21 0.23 0.21 0.20 0.22 0.22 0.19 0.21 0.23 0.24 0.25 0.30 0.38 0.40 0.40 0.43 0.45 0.44 0.46 0.48 0.52 0.49 0.48 0.50 0.58 0.67 0.74 0.74 0.74 0.78
0.59 0.89 1.08 1.07 1.09 0.92 0.66 0.58 0.52 0.44 0.35 0.25 0.23 0.21 0.21 0.22 0.20 0.19 0.18 0.18 0.16 0.17 0.20 0.23 0.28 0.34 0.39 0.41 0.39 0.37 0.38 0.40 0.44 0.48 0.51 0.48 0.47 0.47 0.50 0.58 0.69 0.76 0.79 0.78
0.36 0.42 0.52 0.56 0.58 0.50 0.41 0.36 0.35 0.33 0.30 0.24 0.22 0.22 0.23 0.23 0.21 0.20 0.18 0.17 0.17 0.17 0.19 0.23 0.29 0.33 0.38 0.39 0.39 0.37 0.36 0.36 0.39 0.43 0.49 0.49 0.50 0.51 0.51 0.54 0.61 0.75 0.81 0.75
0.31 0.32 0.36 0.39 0.34 0.34 0.30 0.26 0.26 0.27 0.24 0.20 0.20 0.22 0.25 0.25 0.22 0.20 0.21 0.23 0.21 0.20 0.19 0.22 0.27 0.32 0.36 0.40 0.39 0.39 0.38 0.35 0.34 0.38 0.42 0.42 0.47 0.52 0.52 0.47 0.49 0.60 0.67 0.73
0.25 0.36 0.41 0.35 0.25 0.28 0.29 0.24 0.23 0.24 0.21 0.20 0.23 0.28 0.27 0.23 0.21 0.20 0.21 0.27 0.28 0.25 0.23 0.25 0.26 0.30 0.31 0.36 0.41 0.43 0.46 0.44 0.40 0.39 0.41 0.43 0.46 0.51 0.52 0.48 0.48 0.52 0.55 0.64